BAW295 HECA-EGKK

Flight info

Callsign BAW295
Flight time N/A
Altitude 38000
Route CVO L617 TANSA UL613 YNN UL611 TUMBO DCT RODON DCT VAKSU DCT PEVAL DCT MOBDO DCT SOTOV/N0484F400 DCT KPT L608 KUNOD DCT LIRSU DCT DENUT L610 TEBRA
Aircraft A388/J-SADE2E3FGHIJ3J4J5M1RWXY/LB1D1

Departure

Time 2026-04-27 03:49
Airport Cairo International Airport (HECA)

Arrival

Time N/A
Airport London Gatwick Airport (EGKK)
Time Latitude Longitude Altitude Speed Heading
2026-04-27 03:10 30.11326 31.40097 383 ft 0 kts 241°
2026-04-27 03:32 30.11330 31.40107 379 ft 3 kts 241°
2026-04-27 03:32 30.11339 31.40125 379 ft 3 kts 240°
2026-04-27 03:32 30.11351 31.40142 379 ft 3 kts 218°
2026-04-27 03:33 30.11368 31.40147 379 ft 3 kts 184°
2026-04-27 03:33 30.11387 31.40145 379 ft 3 kts 167°
2026-04-27 03:33 30.11393 31.40143 379 ft 0 kts 165°
2026-04-27 03:34 30.11381 31.40148 379 ft 4 kts 159°
2026-04-27 03:34 30.11345 31.40180 379 ft 9 kts 124°
2026-04-27 03:34 30.11329 31.40213 379 ft 0 kts 114°
2026-04-27 03:34 30.11327 31.40218 379 ft 1 kts 116°
2026-04-27 03:35 30.11317 31.40245 379 ft 7 kts 110°
2026-04-27 03:35 30.11297 31.40320 379 ft 13 kts 106°
2026-04-27 03:35 30.11241 31.40413 379 ft 16 kts 134°
2026-04-27 03:35 30.11156 31.40504 379 ft 14 kts 139°
2026-04-27 03:36 30.11138 31.40521 379 ft 6 kts 140°
2026-04-27 03:36 30.11095 31.40564 379 ft 11 kts 139°
2026-04-27 03:36 30.11043 31.40635 379 ft 12 kts 93°
2026-04-27 03:36 30.11072 31.40743 379 ft 16 kts 83°
2026-04-27 03:37 30.11076 31.40875 379 ft 17 kts 65°
2026-04-27 03:37 30.11100 31.40923 379 ft 0 kts 57°
2026-04-27 03:39 30.11102 31.40926 379 ft 1 kts 55°
2026-04-27 03:39 30.11111 31.40939 379 ft 4 kts 51°
2026-04-27 03:39 30.11133 31.40970 379 ft 7 kts 50°
2026-04-27 03:40 30.11177 31.41031 379 ft 13 kts 50°
2026-04-27 03:40 30.11243 31.41136 379 ft 18 kts 45°
2026-04-27 03:40 30.11344 31.41259 379 ft 24 kts 49°
2026-04-27 03:40 30.11463 31.41416 379 ft 28 kts 48°
2026-04-27 03:41 30.11601 31.41595 379 ft 30 kts 49°
2026-04-27 03:41 30.11728 31.41765 379 ft 27 kts 51°
2026-04-27 03:41 30.11841 31.41921 379 ft 24 kts 49°
2026-04-27 03:41 30.11945 31.42060 379 ft 22 kts 50°
2026-04-27 03:42 30.12045 31.42192 379 ft 21 kts 48°
2026-04-27 03:42 30.12136 31.42313 379 ft 20 kts 49°
2026-04-27 03:42 30.12225 31.42429 379 ft 19 kts 47°
2026-04-27 03:42 30.12309 31.42540 379 ft 18 kts 49°
2026-04-27 03:43 30.12390 31.42648 379 ft 18 kts 49°
2026-04-27 03:43 30.12435 31.42708 379 ft 9 kts 51°
2026-04-27 03:43 30.12467 31.42772 379 ft 10 kts 72°
2026-04-27 03:43 30.12464 31.42850 379 ft 10 kts 112°
2026-04-27 03:44 30.12453 31.42875 379 ft 0 kts 127°
2026-04-27 03:46 30.12452 31.42877 379 ft 2 kts 127°
2026-04-27 03:47 30.12428 31.42904 379 ft 8 kts 145°
2026-04-27 03:47 30.12365 31.42924 381 ft 13 kts 180°
2026-04-27 03:47 30.12262 31.42878 377 ft 17 kts 224°
2026-04-27 03:47 30.12237 31.42846 377 ft 7 kts 231°
2026-04-27 03:48 30.12221 31.42823 377 ft 0 kts 229°
2026-04-27 03:48 30.12144 31.42722 380 ft 53 kts 228°
2026-04-27 03:48 30.11706 31.42138 379 ft 134 kts 229°
2026-04-27 03:48 30.10987 31.41174 516 ft 171 kts 230°
2026-04-27 03:49 30.10245 31.40180 1450 ft 161 kts 230°
2026-04-27 03:49 30.09492 31.39187 2154 ft 181 kts 233°
2026-04-27 03:49 30.08952 31.37800 2562 ft 202 kts 265°
2026-04-27 03:49 30.09217 31.36167 3021 ft 220 kts 297°
2026-04-27 03:50 30.10316 31.34835 3513 ft 243 kts 327°
2026-04-27 03:50 30.11930 31.34026 4065 ft 260 kts 336°
2026-04-27 03:50 30.13588 31.33169 4867 ft 262 kts 329°
2026-04-27 03:50 30.15132 31.32047 5685 ft 264 kts 322°
2026-04-27 03:51 30.16576 31.30717 6499 ft 267 kts 317°
2026-04-27 03:51 30.17962 31.29267 7344 ft 269 kts 315°
2026-04-27 03:51 30.19325 31.27767 8152 ft 273 kts 314°
2026-04-27 03:51 30.20699 31.26235 8929 ft 276 kts 314°
2026-04-27 03:52 30.22088 31.24687 9708 ft 279 kts 314°
2026-04-27 03:52 30.23497 31.23124 10381 ft 286 kts 315°
2026-04-27 03:52 30.24995 31.21465 10596 ft 308 kts 315°
2026-04-27 03:52 30.26596 31.19693 10795 ft 328 kts 315°
2026-04-27 03:53 30.28263 31.17853 11321 ft 334 kts 315°
2026-04-27 03:53 30.29957 31.15984 11964 ft 338 kts 315°
2026-04-27 03:53 30.31664 31.14098 12617 ft 341 kts 315°
2026-04-27 03:53 30.33390 31.12189 13250 ft 344 kts 315°
2026-04-27 03:54 30.35129 31.10264 13869 ft 348 kts 315°
2026-04-27 03:54 30.36883 31.08321 14463 ft 351 kts 315°
2026-04-27 03:54 30.38654 31.06357 15066 ft 354 kts 315°
2026-04-27 03:54 30.40437 31.04380 15642 ft 357 kts 315°
2026-04-27 03:55 30.42218 31.02403 16203 ft 360 kts 315°
2026-04-27 03:55 30.44034 31.00386 16755 ft 363 kts 315°
2026-04-27 03:55 30.45886 30.98330 17282 ft 366 kts 315°
2026-04-27 03:55 30.47715 30.96296 17810 ft 369 kts 315°
2026-04-27 03:56 30.49575 30.94228 18318 ft 372 kts 315°
2026-04-27 03:56 30.51448 30.92143 18808 ft 375 kts 315°
2026-04-27 03:56 30.53341 30.90035 19289 ft 378 kts 315°
2026-04-27 03:56 30.55242 30.87918 19768 ft 381 kts 315°
2026-04-27 03:57 30.57161 30.85778 20226 ft 383 kts 315°
2026-04-27 03:57 30.59084 30.83633 20678 ft 386 kts 315°
2026-04-27 03:57 30.61023 30.81469 21117 ft 389 kts 315°
2026-04-27 03:57 30.62986 30.79277 21562 ft 391 kts 315°
2026-04-27 03:58 30.64955 30.77076 21996 ft 394 kts 315°
2026-04-27 03:58 30.66939 30.74859 22419 ft 397 kts 315°
2026-04-27 03:58 30.68931 30.72630 22816 ft 399 kts 315°
2026-04-27 03:58 30.70936 30.70386 23220 ft 402 kts 315°
2026-04-27 03:59 30.72957 30.68122 23622 ft 404 kts 315°
2026-04-27 03:59 30.74982 30.65852 24012 ft 407 kts 315°
2026-04-27 03:59 30.77033 30.63553 24398 ft 409 kts 315°
2026-04-27 03:59 30.79089 30.61245 24784 ft 412 kts 315°
2026-04-27 04:00 30.81152 30.58929 25167 ft 414 kts 315°
2026-04-27 04:00 30.83230 30.56594 25561 ft 417 kts 315°
2026-04-27 04:00 30.85323 30.54240 25955 ft 419 kts 315°
2026-04-27 04:00 30.87430 30.51870 26370 ft 422 kts 315°
2026-04-27 04:01 30.89546 30.49488 26787 ft 425 kts 315°
2026-04-27 04:01 30.91675 30.47090 27204 ft 428 kts 315°
2026-04-27 04:01 30.93822 30.44670 27625 ft 430 kts 315°
2026-04-27 04:01 30.95980 30.42235 28042 ft 433 kts 315°
2026-04-27 04:02 30.98147 30.39789 28457 ft 436 kts 315°
2026-04-27 04:02 31.00308 30.37349 28867 ft 439 kts 315°
2026-04-27 04:02 31.02507 30.34863 29274 ft 442 kts 315°
2026-04-27 04:02 31.04747 30.32330 29684 ft 445 kts 315°
2026-04-27 04:03 31.06970 30.29814 30078 ft 447 kts 315°
2026-04-27 04:03 31.09211 30.27275 30490 ft 450 kts 315°
2026-04-27 04:03 31.11465 30.24720 30874 ft 453 kts 315°
2026-04-27 04:03 31.13730 30.22152 31269 ft 456 kts 315°
2026-04-27 04:04 31.15983 30.19594 31641 ft 459 kts 315°
2026-04-27 04:04 31.18278 30.16988 32017 ft 461 kts 315°
2026-04-27 04:04 31.20585 30.14366 32379 ft 464 kts 315°
2026-04-27 04:04 31.22902 30.11731 32740 ft 467 kts 315°
2026-04-27 04:05 31.25232 30.09079 33095 ft 469 kts 315°
2026-04-27 04:05 31.27577 30.06407 33447 ft 472 kts 315°
2026-04-27 04:05 31.29939 30.03715 33796 ft 475 kts 315°
2026-04-27 04:05 31.32308 30.01013 34136 ft 477 kts 315°
2026-04-27 04:06 31.34688 29.98296 34476 ft 480 kts 315°
2026-04-27 04:06 31.37079 29.95564 34888 ft 480 kts 315°
2026-04-27 04:06 31.38692 29.93720 35203 ft 480 kts 315°
2026-04-27 04:07 31.43419 29.88311 36115 ft 477 kts 315°
2026-04-27 04:07 31.45793 29.85592 36529 ft 477 kts 315°
2026-04-27 04:07 31.48165 29.82873 36900 ft 477 kts 315°
2026-04-27 04:07 31.50537 29.80151 37289 ft 477 kts 315°
2026-04-27 04:08 31.52908 29.77429 37661 ft 477 kts 315°
2026-04-27 04:08 31.55277 29.74707 37958 ft 478 kts 315°
2026-04-27 04:08 31.60105 29.69151 38001 ft 495 kts 315°
2026-04-27 04:09 31.65096 29.63400 38001 ft 511 kts 315°
2026-04-27 04:09 31.70241 29.57464 37995 ft 520 kts 315°
2026-04-27 04:10 31.75272 29.51653 37996 ft 485 kts 314°
2026-04-27 04:10 31.77639 29.48915 38001 ft 474 kts 314°
2026-04-27 04:10 31.79990 29.46190 38000 ft 475 kts 314°
2026-04-27 04:11 31.84690 29.40738 38000 ft 475 kts 314°
2026-04-27 04:11 31.89400 29.35268 38000 ft 476 kts 314°
2026-04-27 04:12 31.94113 29.29786 38000 ft 476 kts 314°
2026-04-27 04:12 31.98830 29.24293 38000 ft 477 kts 314°
2026-04-27 04:13 32.03545 29.18792 38000 ft 478 kts 314°
2026-04-27 04:13 32.08274 29.13267 38000 ft 479 kts 314°
2026-04-27 04:14 32.12977 29.07764 37991 ft 480 kts 314°
2026-04-27 04:14 32.17750 29.02170 37987 ft 481 kts 314°
2026-04-27 04:15 32.22468 28.96632 37994 ft 482 kts 314°
2026-04-27 04:15 32.27221 28.91044 38001 ft 483 kts 314°
2026-04-27 04:16 32.31988 28.85432 38009 ft 483 kts 314°
2026-04-27 04:16 32.36750 28.79815 38016 ft 484 kts 314°
2026-04-27 04:17 32.41521 28.74181 38025 ft 485 kts 314°
2026-04-27 04:17 32.46306 28.68519 38030 ft 486 kts 314°
2026-04-27 04:18 32.51088 28.62853 38038 ft 487 kts 314°
2026-04-27 04:18 32.55888 28.57156 38046 ft 488 kts 314°
2026-04-27 04:19 32.60661 28.51482 37997 ft 491 kts 314°
2026-04-27 04:19 32.63045 28.48645 37999 ft 480 kts 314°
2026-04-27 04:19 32.65397 28.45845 38000 ft 480 kts 314°
2026-04-27 04:20 32.70105 28.40229 38000 ft 481 kts 314°
2026-04-27 04:20 32.74829 28.34586 38000 ft 482 kts 314°
2026-04-27 04:21 32.79553 28.28935 38000 ft 483 kts 314°
2026-04-27 04:21 32.84288 28.23261 38009 ft 484 kts 314°
2026-04-27 04:22 32.89023 28.17579 38013 ft 484 kts 314°
2026-04-27 04:22 32.93758 28.11887 38013 ft 484 kts 314°
2026-04-27 04:23 32.98488 28.06192 38012 ft 484 kts 314°
2026-04-27 04:23 33.03217 28.00489 38010 ft 483 kts 314°
2026-04-27 04:24 33.07929 27.94796 38007 ft 483 kts 314°
2026-04-27 04:24 33.12656 27.89077 38005 ft 483 kts 314°
2026-04-27 04:25 33.17364 27.83371 38003 ft 482 kts 314°
2026-04-27 04:25 33.22072 27.77657 38000 ft 482 kts 314°
2026-04-27 04:26 33.26774 27.71940 37998 ft 482 kts 314°
2026-04-27 04:26 33.31464 27.66227 37997 ft 482 kts 314°
2026-04-27 04:27 33.36158 27.60502 37995 ft 482 kts 313°
2026-04-27 04:27 33.40842 27.54779 37995 ft 481 kts 313°
2026-04-27 04:28 33.45525 27.49047 37993 ft 481 kts 313°
2026-04-27 04:28 33.50199 27.43317 37991 ft 481 kts 313°
2026-04-27 04:29 33.54874 27.37578 37990 ft 481 kts 313°
2026-04-27 04:29 33.59517 27.31867 37990 ft 481 kts 313°
2026-04-27 04:30 33.64186 27.26116 37992 ft 481 kts 313°
2026-04-27 04:30 33.68855 27.20353 37993 ft 481 kts 313°
2026-04-27 04:31 33.73520 27.14588 37994 ft 481 kts 313°
2026-04-27 04:31 33.78180 27.08819 37994 ft 481 kts 313°
2026-04-27 04:32 33.82846 27.03033 37995 ft 482 kts 313°
2026-04-27 04:32 33.87508 26.97244 37997 ft 482 kts 313°
2026-04-27 04:33 33.92170 26.91449 37999 ft 482 kts 313°
2026-04-27 04:33 33.96832 26.85646 38001 ft 482 kts 313°
2026-04-27 04:34 34.01672 26.80054 37997 ft 483 kts 321°
2026-04-27 04:34 34.06974 26.75078 37997 ft 483 kts 321°
2026-04-27 04:35 34.12264 26.70083 37999 ft 483 kts 321°
2026-04-27 04:35 34.17525 26.65109 38001 ft 483 kts 321°
2026-04-27 04:36 34.22815 26.60101 38004 ft 484 kts 321°
2026-04-27 04:36 34.28114 26.55076 38006 ft 484 kts 321°
2026-04-27 04:37 34.33408 26.50048 38007 ft 484 kts 321°
2026-04-27 04:37 34.38694 26.45017 38009 ft 484 kts 321°
2026-04-27 04:38 34.43997 26.39960 38010 ft 484 kts 321°
2026-04-27 04:38 34.49289 26.34904 38011 ft 484 kts 321°
2026-04-27 04:39 34.54568 26.29852 38032 ft 478 kts 321°